Weather History for KBWI - January, 2013

Change the Weather History Date:

Tuesday, January 22, 2013

  Actual Average Record
Temperature  
Mean Temperature 22 °F 33 °F  
Max Temperature 29 °F 41 °F 69 °F (1927)
Min Temperature 15 °F 24 °F -7 °F (1984)
Degree Days  
Heating Degree Days 43 32  
Month to date heating degree days 582 704  
Since 1 July heating degree days 2179 2485  
Cooling Degree Days 0 0  
Month to date cooling degree days 0 0  
Year to date cooling degree days 0 0  
Moisture  
Dew Point -2 °F    
Average Humidity 40    
Maximum Humidity 49    
Minimum Humidity 30    
Precipitation  
Precipitation 0.00 in 0.10 in 1.75 in (1987)
Month to date precipitation 1.37 2.17  
Year to date precipitation 1.37 2.17  
Snow  
Snow 0.00 in 0.20 in 12.30 in (1987)
Month to date snowfall T 4.4  
Since 1 July snowfall 1.4 7.8  
Snow Depth 0.00 in    
Sea Level Pressure  
Sea Level Pressure 30.16 in    
Wind  
Wind Speed 14 mph (WNW)    
Max Wind Speed 29 mph    
Max Gust Speed 39 mph    
Visibility 10 miles    
Events      
T = Trace of Precipitation, MM = Missing Value Source: NWS Daily Summary

Daily Weather History Graph

Daily Weather History Graph

Search for Another Location

Airport or City:

Trip Planner

Search our weather history database for the weather conditions in past years. The results will help you decide how hot, cold, wet, or windy it might be!

Date:

Astronomy

Jan. 22, 2013 Rise Set
Actual Time 7:20 AM EST 5:16 PM EST
Civil Twilight 6:52 AM EST 5:45 PM EST
Nautical Twilight 6:19 AM EST 6:17 PM EST
Astronomical Twilight 5:47 AM EST 6:49 PM EST
Moon 1:37 PM EST (1/22) 3:40 AM EST (1/22)
Length of Visible Light 10h 53m
Length of Day
9h 55m
Waxing Gibbous, 82% of the Moon is Illuminated
Jan 22
Waxing Gibbous
Jan 26
Full
Feb 3
Last Quarter
Feb 10
New
Feb 17
First Quarter

Hourly Weather History & Observations

Time (EST) Temp. Windchill Dew Point Humidity Pressure Visibility Wind Dir Wind Speed Gust Speed Precip Events Conditions
12:54 AM 28.0 °F 14.9 °F 8.1 °F 43% 29.94 in 10.0 mi WNW 19.6 mph 31.1 mph N/A   Scattered Clouds
1:54 AM 25.0 °F 10.2 °F 3.0 °F 39% 29.97 in 10.0 mi WNW 21.9 mph 36.8 mph N/A   Partly Cloudy
2:54 AM 23.0 °F 8.7 °F 1.9 °F 40% 30.02 in 10.0 mi WNW 18.4 mph 28.8 mph N/A   Clear
3:54 AM 21.0 °F 11.4 °F 1.0 °F 42% 30.04 in 10.0 mi WNW 8.1 mph 19.6 mph N/A   Partly Cloudy
4:54 AM 19.9 °F 7.3 °F 1.9 °F 46% 30.06 in 10.0 mi WNW 12.7 mph - N/A   Partly Cloudy
5:54 AM 19.0 °F 8.2 °F 3.0 °F 50% 30.09 in 10.0 mi West 9.2 mph 19.6 mph N/A   Partly Cloudy
6:54 AM 19.0 °F 4.5 °F -2.0 °F 40% 30.13 in 10.0 mi WNW 16.1 mph 24.2 mph N/A   Partly Cloudy
7:54 AM 18.0 °F 0.9 °F -6.0 °F 35% 30.14 in 10.0 mi WNW 21.9 mph 38.0 mph N/A   Scattered Clouds
8:54 AM 18.0 °F 1.7 °F -5.1 °F 36% 30.18 in 10.0 mi WNW 19.6 mph 28.8 mph N/A   Scattered Clouds
9:54 AM 19.0 °F 5.0 °F -5.1 °F 34% 30.21 in 10.0 mi WNW 15.0 mph 27.6 mph N/A   Scattered Clouds
10:54 AM 19.0 °F 3.6 °F -6.0 °F 33% 30.21 in 10.0 mi West 18.4 mph 25.3 mph N/A   Scattered Clouds
11:54 AM 21.0 °F 7.1 °F -6.0 °F 30% 30.19 in 10.0 mi WNW 16.1 mph 24.2 mph N/A   Scattered Clouds
12:54 PM 21.0 °F 4.6 °F -6.0 °F 30% 30.17 in 10.0 mi West 23.0 mph 32.2 mph N/A   Scattered Clouds
1:54 PM 21.9 °F 6.9 °F -5.1 °F 30% 30.16 in 10.0 mi West 19.6 mph 25.3 mph N/A   Scattered Clouds
2:54 PM 23.0 °F 11.7 °F -5.1 °F 29% 30.16 in 10.0 mi West 11.5 mph 25.3 mph N/A   Partly Cloudy
3:54 PM 23.0 °F 9.6 °F -5.1 °F 29% 30.17 in 10.0 mi WNW 16.1 mph 23.0 mph N/A   Partly Cloudy
4:54 PM 21.0 °F 9.9 °F -6.0 °F 30% 30.20 in 10.0 mi West 10.4 mph - N/A   Partly Cloudy
5:54 PM 19.9 °F 6.7 °F -5.1 °F 33% 30.23 in 10.0 mi WNW 13.8 mph 19.6 mph N/A   Partly Cloudy
6:54 PM 19.0 °F 8.2 °F -4.0 °F 36% 30.26 in 10.0 mi WNW 9.2 mph 19.6 mph N/A   Clear
7:54 PM 18.0 °F 8.7 °F -2.9 °F 40% 30.27 in 10.0 mi WNW 6.9 mph - N/A   Clear
8:54 PM 18.0 °F 6.1 °F -2.9 °F 40% 30.27 in 10.0 mi NW 10.4 mph - N/A   Scattered Clouds
9:54 PM 18.0 °F 4.2 °F -2.9 °F 40% 30.29 in 10.0 mi NW 13.8 mph - N/A   Partly Cloudy
10:54 PM 16.0 °F 10.4 °F -2.9 °F 43% 30.30 in 10.0 mi Variable 3.5 mph - N/A   Partly Cloudy
11:54 PM 15.1 °F 5.2 °F -2.0 °F 47% 30.30 in 10.0 mi NW 6.9 mph - N/A   Partly Cloudy